| time (UTC) | temp F | wind direction | speed MPH | gust MPH | rain 1hr in | rain 24hr in | rain mn in | humidity % | barometer mb |
| 20260506090819 | 46 | 166 | 2.0 | 3.0 | 0.00 | 0.23 | 0.23 | 96 | 1010.0 |
| 20260506090316 | 46 | 263 | 1.0 | 1.0 | 0.00 | 0.23 | 0.23 | 96 | 1010.0 |
| 20260506085812 | 46 | 143 | 0.0 | 1.0 | 0.00 | 0.23 | 0.23 | 96 | 1009.7 |
| 20260506085308 | 46 | 128 | 0.0 | 1.0 | 0.00 | 0.23 | 0.23 | 96 | 1009.8 |
| 20260506084806 | 46 | 138 | 0.0 | 1.0 | 0.05 | 0.23 | 0.23 | 96 | 1009.6 |
| 20260506084302 | 46 | 151 | 0.0 | 1.0 | 0.05 | 0.23 | 0.23 | 96 | 1009.5 |
| 20260506083759 | 46 | 161 | 0.0 | 0.0 | 0.00 | 0.22 | 0.22 | 96 | 1009.4 |
| 20260506083257 | 46 | 279 | 0.0 | 1.0 | 0.00 | 0.22 | 0.22 | 96 | 1009.4 |
| 20260506082754 | 46 | 284 | 1.0 | 1.0 | 0.00 | 0.22 | 0.22 | 96 | 1009.4 |
| 20260506082249 | 46 | 284 | 0.0 | 0.0 | 0.07 | 0.22 | 0.22 | 96 | 1009.3 |
| 20260506081747 | 46 | 284 | 0.0 | 0.0 | 0.12 | 0.22 | 0.22 | 96 | 1009.4 |
| 20260506081244 | 46 | 284 | 0.0 | 0.0 | 0.12 | 0.21 | 0.21 | 96 | 1009.5 |
| 20260506080742 | 46 | 284 | 1.0 | 4.0 | 0.12 | 0.20 | 0.20 | 96 | 1009.6 |
| 20260506080238 | 46 | 211 | 1.0 | 1.0 | 0.12 | 0.19 | 0.19 | 96 | 1009.6 |
| 20260506073222 | 47 | 147 | 0.0 | 4.0 | 0.00 | 0.14 | 0.14 | 96 | 1009.7 |
| 20260506072719 | 47 | 184 | 0.0 | 3.0 | 0.05 | 0.14 | 0.14 | 96 | 1009.6 |
| 20260506072217 | 47 | 170 | 0.0 | 1.0 | 0.12 | 0.14 | 0.14 | 96 | 1009.8 |
| 20260506071714 | 47 | 221 | 1.0 | 1.0 | 0.12 | 0.13 | 0.13 | 96 | 1009.5 |
| 20260506071212 | 47 | 134 | 1.0 | 3.0 | 0.12 | 0.12 | 0.12 | 96 | 1009.5 |
| 20260506070709 | 47 | 143 | 0.0 | 0.0 | 0.07 | 0.11 | 0.11 | 96 | 1009.5 |
| 20260506070206 | 47 | 179 | 0.0 | 0.0 | 0.05 | 0.10 | 0.10 | 96 | 1009.5 |
| 20260506062142 | 47 | 135 | 0.0 | 0.0 | 0.00 | 0.07 | 0.07 | 96 | 1009.3 |
| 20260506061638 | 47 | 135 | 0.0 | 0.0 | 0.07 | 0.07 | 0.07 | 96 | 1009.4 |
| 20260506061136 | 47 | 137 | 0.0 | 0.0 | 0.07 | 0.07 | 0.07 | 96 | 1009.7 |
| 20260506060635 | 47 | 137 | 0.0 | 1.0 | 0.00 | 0.06 | 0.06 | 96 | 1009.6 |
| 20260506060131 | 47 | 137 | 0.0 | 0.0 | 0.00 | 0.06 | 0.06 | 96 | 1009.7 |
| 20260506051103 | 46 | 137 | 0.0 | 0.0 | 0.07 | 0.04 | 0.04 | 96 | 1009.7 |
| 20260506050601 | 46 | 137 | 0.0 | 0.0 | 0.00 | 0.03 | 0.03 | 96 | 1009.5 |
| 20260506045052 | 46 | 136 | 0.0 | 0.0 | 0.00 | 0.02 | 0.02 | 96 | 1009.8 |
| 20260506044550 | 46 | 136 | 0.0 | 0.0 | 0.07 | 0.02 | 0.02 | 96 | 1009.8 |
| 20260506044046 | 46 | 344 | 0.0 | 0.0 | 0.07 | 0.02 | 0.02 | 96 | 1009.9 |
| 20260506043543 | 46 | 344 | 0.0 | 0.0 | 0.00 | 0.01 | 0.01 | 96 | 1010.1 |
| 20260506043041 | 46 | 344 | 0.0 | 0.0 | 0.00 | 0.01 | 0.01 | 96 | 1010.0 |
| 20260506042540 | 46 | 344 | 0.0 | 0.0 | 0.05 | 0.01 | 0.01 | 96 | 1010.1 |
| 20260506042038 | 46 | 344 | 0.0 | 0.0 | 0.05 | 0.01 | 0.01 | 96 | 1010.3 |
| 20260506041536 | 46 | 344 | 0.0 | 0.0 | 0.00 | 0.00 | 0.00 | 96 | 1010.1 |
| 20260506041033 | 46 | 344 | 0.0 | 0.0 | 0.00 | 0.00 | 0.00 | 96 | 1010.2 |
| 20260506040531 | 46 | 344 | 0.0 | 0.0 | 0.07 | 0.00 | 0.00 | 96 | 1010.3 |
| 20260506040026 | 46 | 344 | 0.0 | 0.0 | 0.07 | 1.20 | 1.20 | 96 | 1010.2 |
| 20260506035524 | 46 | 344 | 0.0 | 0.0 | 0.00 | 1.19 | 1.19 | 96 | 1010.3 |
| 20260506035020 | 46 | 210 | 0.0 | 3.0 | 0.05 | 1.19 | 1.19 | 96 | 1010.4 |
| 20260506034518 | 47 | 129 | 0.0 | 1.0 | 0.05 | 1.19 | 1.19 | 96 | 1010.5 |
| 20260506034014 | 49 | 119 | 1.0 | 4.0 | 0.07 | 1.18 | 1.18 | 96 | 1010.7 |
| 20260506033512 | 49 | 144 | 0.0 | 0.0 | 0.12 | 1.18 | 1.18 | 97 | 1010.7 |
| 20260506033009 | 49 | 142 | 0.0 | 0.0 | 0.05 | 1.17 | 1.17 | 96 | 1010.8 |
| 20260506032506 | 49 | 166 | 0.0 | 0.0 | 0.07 | 1.16 | 1.16 | 96 | 1010.6 |
| 20260506032002 | 49 | 166 | 0.0 | 0.0 | 0.05 | 1.15 | 1.15 | 96 | 1010.6 |
| 20260506031500 | 49 | 166 | 0.0 | 0.0 | 0.07 | 1.14 | 1.14 | 96 | 1010.8 |
| 20260506030957 | 49 | 166 | 0.0 | 0.0 | 0.14 | 1.14 | 1.14 | 96 | 1010.6 |
| 20260506030455 | 49 | 166 | 0.0 | 1.0 | 0.19 | 1.13 | 1.13 | 96 | 1010.6 |
| 20260506025952 | 49 | 152 | 0.0 | 0.0 | 0.12 | 1.11 | 1.11 | 96 | 1010.6 |
| 20260506025449 | 49 | 151 | 0.0 | 0.0 | 0.12 | 1.10 | 1.10 | 96 | 1010.7 |
| 20260506024945 | 49 | 156 | 0.0 | 0.0 | 0.19 | 1.09 | 1.09 | 96 | 1010.8 |
| 20260506024442 | 49 | 147 | 0.0 | 1.0 | 0.19 | 1.07 | 1.07 | 96 | 1010.6 |
| 20260506023938 | 49 | 222 | 1.0 | 3.0 | 0.24 | 1.06 | 1.06 | 96 | 1010.7 |
| 20260506023435 | 49 | 115 | 0.0 | 1.0 | 0.24 | 1.04 | 1.04 | 96 | 1010.7 |
| 20260506022931 | 49 | 102 | 1.0 | 1.0 | 0.26 | 1.01 | 1.01 | 96 | 1010.6 |
| 20260506022429 | 49 | 107 | 0.0 | 0.0 | 0.24 | 1.00 | 1.00 | 96 | 1010.4 |
| 20260506021927 | 49 | 107 | 0.0 | 0.0 | 0.24 | 0.97 | 0.97 | 96 | 1010.2 |
| 20260506021424 | 49 | 107 | 0.0 | 0.0 | 0.24 | 0.96 | 0.96 | 96 | 1010.1 |
| 20260506020921 | 49 | 106 | 0.0 | 1.0 | 0.24 | 0.93 | 0.93 | 96 | 1010.1 |
| 20260506020419 | 49 | 110 | 0.0 | 0.0 | 0.24 | 0.92 | 0.92 | 96 | 1010.2 |
| 20260506015916 | 49 | 110 | 0.0 | 0.0 | 0.19 | 0.89 | 0.89 | 96 | 1010.1 |
| 20260506015414 | 49 | 111 | 0.0 | 0.0 | 0.12 | 0.87 | 0.87 | 96 | 1010.1 |
| 20260506014910 | 49 | 110 | 0.0 | 1.0 | 0.05 | 0.86 | 0.86 | 96 | 1010.1 |
| 20260506014407 | 49 | 110 | 0.0 | 0.0 | 0.07 | 0.85 | 0.85 | 96 | 1009.9 |
| 20260506013903 | 49 | 109 | 0.0 | 1.0 | 0.12 | 0.85 | 0.85 | 96 | 1009.7 |
| 20260506013402 | 49 | 114 | 0.0 | 0.0 | 0.05 | 0.84 | 0.84 | 96 | 1010.0 |
| 20260506012857 | 49 | 114 | 0.0 | 0.0 | 0.12 | 0.83 | 0.83 | 96 | 1010.1 |
| 20260506012354 | 49 | 122 | 0.0 | 0.0 | 0.05 | 0.82 | 0.82 | 96 | 1010.2 |
| 20260506011851 | 49 | 122 | 0.0 | 0.0 | 0.00 | 0.81 | 0.81 | 96 | 1010.0 |
| 20260506011348 | 50 | 153 | 0.0 | 0.0 | 0.00 | 0.81 | 0.81 | 96 | 1009.9 |
| 20260506010845 | 50 | 153 | 0.0 | 0.0 | 0.00 | 0.81 | 0.81 | 96 | 1010.1 |
| 20260506010344 | 50 | 119 | 0.0 | 0.0 | 0.07 | 0.81 | 0.81 | 96 | 1010.0 |
| 20260506005840 | 49 | 119 | 0.0 | 0.0 | 0.07 | 0.81 | 0.81 | 96 | 1010.0 |
| 20260506005337 | 49 | 118 | 0.0 | 0.0 | 0.00 | 0.80 | 0.80 | 96 | 1010.0 |
| 20260506004833 | 50 | 118 | 0.0 | 1.0 | 0.00 | 0.80 | 0.80 | 96 | 1009.9 |
| 20260506004331 | 50 | 131 | 0.0 | 1.0 | 0.05 | 0.80 | 0.80 | 96 | 1010.0 |
| 20260506003827 | 50 | 164 | 0.0 | 1.0 | 0.05 | 0.80 | 0.80 | 96 | 1010.0 |
| 20260506003323 | 50 | 84 | 1.0 | 1.0 | 0.07 | 0.79 | 0.79 | 95 | 1009.9 |
| 20260506002820 | 50 | 87 | 1.0 | 3.0 | 0.12 | 0.79 | 0.79 | 95 | 1009.7 |
| 20260506002316 | 50 | 105 | 0.0 | 1.0 | 0.12 | 0.77 | 0.77 | 95 | 1009.6 |
| 20260506001812 | 50 | 105 | 0.0 | 1.0 | 0.12 | 0.77 | 0.77 | 95 | 1009.6 |
| 20260506001309 | 50 | 118 | 0.0 | 0.0 | 0.14 | 0.75 | 0.75 | 95 | 1009.4 |
| 20260506000806 | 50 | 118 | 0.0 | 0.0 | 0.14 | 0.75 | 0.75 | 95 | 1009.4 |
| 20260506000304 | 50 | 105 | 0.0 | 1.0 | 0.19 | 0.75 | 0.75 | 95 | 1009.5 |
| 20260505235800 | 50 | 134 | 0.0 | 0.0 | 0.05 | 0.73 | 0.73 | 95 | 1009.3 |
| 20260505235258 | 50 | 108 | 1.0 | 1.0 | 0.00 | 0.72 | 0.72 | 95 | 1009.2 |
| 20260505234755 | 50 | 102 | 0.0 | 3.0 | 0.00 | 0.72 | 0.72 | 95 | 1009.3 |
| 20260505234253 | 50 | 134 | 0.0 | 0.0 | 0.00 | 0.72 | 0.72 | 95 | 1009.3 |
| 20260505233749 | 50 | 108 | 0.0 | 1.0 | 0.00 | 0.72 | 0.72 | 95 | 1009.3 |
| 20260505233247 | 50 | 58 | 3.0 | 5.0 | 0.00 | 0.72 | 0.72 | 95 | 1009.3 |
| 20260505232744 | 50 | 126 | 0.0 | 3.0 | 0.00 | 0.72 | 0.72 | 95 | 1009.4 |
| 20260505232241 | 50 | 85 | 2.0 | 4.0 | 0.00 | 0.72 | 0.72 | 95 | 1009.1 |
| 20260505231737 | 50 | 117 | 0.0 | 4.0 | 0.00 | 0.72 | 0.72 | 95 | 1009.3 |
| 20260505231237 | 50 | 140 | 0.0 | 1.0 | 0.07 | 0.72 | 0.72 | 95 | 1009.6 |
| 20260505230735 | 50 | 256 | 1.0 | 3.0 | 0.05 | 0.71 | 0.71 | 95 | 1009.7 |
| 20260505230231 | 50 | 80 | 1.0 | 1.0 | 0.05 | 0.71 | 0.71 | 95 | 1009.6 |
| 20260505225727 | 50 | 158 | 0.0 | 0.0 | 0.07 | 0.70 | 0.70 | 95 | 1009.9 |
| 20260505225224 | 50 | 152 | 0.0 | 1.0 | 0.12 | 0.70 | 0.70 | 95 | 1010.0 |
| 20260505224720 | 50 | 100 | 0.0 | 3.0 | 0.24 | 0.68 | 0.68 | 95 | 1009.8 |
| 20260505224218 | 50 | 103 | 1.0 | 3.0 | 0.31 | 0.68 | 0.68 | 95 | 1009.8 |
| 20260505223715 | 50 | 140 | 0.0 | 3.0 | 0.31 | 0.65 | 0.65 | 95 | 1009.8 |
| 20260505223211 | 50 | 108 | 1.0 | 3.0 | 0.19 | 0.63 | 0.63 | 95 | 1009.8 |
| 20260505222707 | 50 | 116 | 0.0 | 3.0 | 0.05 | 0.60 | 0.60 | 94 | 1009.5 |
| 20260505222203 | 51 | 123 | 0.0 | 3.0 | 0.05 | 0.60 | 0.60 | 94 | 1009.5 |
| 20260505221701 | 51 | 109 | 1.0 | 1.0 | 0.07 | 0.59 | 0.59 | 94 | 1009.6 |
| 20260505221157 | 51 | 173 | 0.0 | 3.0 | 0.24 | 0.59 | 0.59 | 94 | 1009.6 |
| 20260505220654 | 51 | 166 | 1.0 | 7.0 | 0.35 | 0.58 | 0.58 | 94 | 1009.4 |
| 20260505220152 | 51 | 127 | 0.0 | 1.0 | 0.24 | 0.55 | 0.55 | 94 | 1009.4 |
| 20260505215650 | 51 | 157 | 2.0 | 3.0 | 0.05 | 0.52 | 0.52 | 94 | 1009.4 |
| 20260505215147 | 51 | 120 | 0.0 | 1.0 | 0.14 | 0.51 | 0.51 | 94 | 1009.2 |
| 20260505214645 | 52 | 142 | 0.0 | 1.0 | 0.26 | 0.51 | 0.51 | 94 | 1009.2 |
| 20260505214142 | 52 | 72 | 1.0 | 3.0 | 0.17 | 0.49 | 0.49 | 94 | 1008.9 |
| 20260505213640 | 53 | 151 | 2.0 | 3.0 | 0.17 | 0.47 | 0.47 | 94 | 1009.4 |
| 20260505213136 | 53 | 142 | 0.0 | 1.0 | 0.24 | 0.45 | 0.45 | 94 | 1009.1 |
| 20260505212632 | 53 | 104 | 0.0 | 1.0 | 0.31 | 0.44 | 0.44 | 94 | 1008.9 |
| 20260505212130 | 53 | 108 | 0.0 | 3.0 | 0.12 | 0.40 | 0.40 | 94 | 1009.1 |
| 20260505211627 | 53 | 157 | 1.0 | 1.0 | 0.19 | 0.39 | 0.39 | 94 | 1008.8 |
| 20260505211124 | 53 | 149 | 1.0 | 3.0 | 0.24 | 0.37 | 0.37 | 93 | 1008.9 |
| 20260505210620 | 53 | 174 | 0.0 | 7.0 | 0.19 | 0.35 | 0.35 | 93 | 1009.3 |
| 20260505210117 | 54 | 340 | 2.0 | 3.0 | 0.12 | 0.33 | 0.33 | 93 | 1009.1 |
| 20260505205615 | 54 | 131 | 0.0 | 1.0 | 0.12 | 0.32 | 0.32 | 93 | 1009.2 |
| 20260505205113 | 55 | 85 | 1.0 | 7.0 | 0.24 | 0.31 | 0.31 | 92 | 1009.1 |
| 20260505204609 | 57 | 285 | 3.0 | 8.0 | 0.24 | 0.29 | 0.29 | 93 | 1009.1 |
| 20260505204107 | 57 | 322 | 3.0 | 5.0 | 0.19 | 0.27 | 0.27 | 93 | 1008.9 |
| 20260505203603 | 57 | 166 | 0.0 | 4.0 | 0.19 | 0.25 | 0.25 | 93 | 1008.8 |
| 20260505203100 | 57 | 305 | 3.0 | 7.0 | 0.24 | 0.24 | 0.24 | 93 | 1009.0 |
| 20260505202556 | 58 | 223 | 1.0 | 1.0 | 0.24 | 0.22 | 0.22 | 93 | 1008.9 |
| 20260505202052 | 58 | 315 | 4.0 | 5.0 | 0.19 | 0.20 | 0.20 | 92 | 1008.8 |
| 20260505201549 | 58 | 180 | 0.0 | 1.0 | 0.12 | 0.18 | 0.18 | 92 | 1008.7 |
| 20260505201047 | 58 | 196 | 0.0 | 3.0 | 0.12 | 0.17 | 0.17 | 92 | 1008.6 |
| 20260505200545 | 58 | 193 | 1.0 | 3.0 | 0.12 | 0.16 | 0.16 | 92 | 1009.0 |
| 20260505200042 | 58 | 181 | 0.0 | 1.0 | 0.19 | 0.16 | 0.16 | 91 | 1009.0 |
| 20260505195538 | 58 | 181 | 1.0 | 3.0 | 0.14 | 0.14 | 0.14 | 91 | 1008.9 |
| 20260505195035 | 58 | 228 | 1.0 | 3.0 | 0.12 | 0.13 | 0.13 | 91 | 1008.8 |
| 20260505194532 | 58 | 209 | 3.0 | 4.0 | 0.12 | 0.12 | 0.12 | 90 | 1008.8 |
| 20260505194027 | 58 | 190 | 0.0 | 3.0 | 0.19 | 0.11 | 0.11 | 90 | 1008.9 |
| 20260505193525 | 58 | 181 | 0.0 | 1.0 | 0.24 | 0.10 | 0.10 | 89 | 1009.0 |
| 20260505193022 | 58 | 207 | 2.0 | 3.0 | 0.24 | 0.08 | 0.08 | 88 | 1009.0 |
| 20260505192520 | 59 | 201 | 2.0 | 7.0 | 0.24 | 0.06 | 0.06 | 87 | 1009.1 |
| 20260505192018 | 59 | 232 | 3.0 | 4.0 | 0.12 | 0.03 | 0.03 | 86 | 1009.1 |
| 20260505191516 | 59 | 201 | 3.0 | 7.0 | 0.05 | 0.02 | 0.02 | 85 | 1009.0 |
| 20260505191014 | 59 | 242 | 4.0 | 7.0 | 0.07 | 0.01 | 0.01 | 84 | 1009.1 |
| 20260505190508 | 59 | 195 | 2.0 | 5.0 | 0.00 | 0.00 | 0.00 | 83 | 1009.0 |
| 20260505190004 | 60 | 216 | 2.0 | 7.0 | 0.00 | 0.00 | 0.00 | 82 | 1009.3 |
| 20260505185501 | 61 | 167 | 1.0 | 8.0 | 0.00 | 0.00 | 0.00 | 80 | 1009.0 |
| 20260505184957 | 61 | 250 | 3.0 | 8.0 | 0.00 | 0.00 | 0.00 | 77 | 1008.9 |
| 20260505184455 | 62 | 285 | 3.0 | 5.0 | 0.00 | 0.00 | 0.00 | 75 | 1009.1 |
| 20260505183951 | 62 | 200 | 2.0 | 10.0 | 0.00 | 0.00 | 0.00 | 74 | 1009.0 |
| 20260505183448 | 63 | 255 | 10.0 | 14.0 | 0.00 | 0.00 | 0.00 | 72 | 1008.9 |
| 20260505182944 | 63 | 210 | 3.0 | 11.0 | 0.00 | 0.00 | 0.00 | 71 | 1008.9 |
| 20260505182442 | 63 | 250 | 7.0 | 11.0 | 0.00 | 0.00 | 0.00 | 70 | 1008.9 |
| 20260505181938 | 64 | 181 | 2.0 | 14.0 | 0.00 | 0.00 | 0.00 | 70 | 1009.0 |
| 20260505181435 | 64 | 248 | 2.0 | 11.0 | 0.00 | 0.00 | 0.00 | 69 | 1009.0 |
| 20260505180932 | 64 | 280 | 5.0 | 10.0 | 0.00 | 0.00 | 0.00 | 68 | 1008.9 |
| 20260505180428 | 64 | 185 | 4.0 | 5.0 | 0.00 | 0.00 | 0.00 | 68 | 1008.8 |
| 20260505175925 | 65 | 217 | 3.0 | 10.0 | 0.00 | 0.00 | 0.00 | 68 | 1008.8 |
| 20260505175421 | 65 | 210 | 4.0 | 11.0 | 0.00 | 0.00 | 0.00 | 67 | 1008.7 |
| 20260505174918 | 65 | 193 | 6.0 | 8.0 | 0.00 | 0.00 | 0.00 | 67 | 1008.7 |
| 20260505174416 | 64 | 247 | 3.0 | 8.0 | 0.00 | 0.00 | 0.00 | 68 | 1008.7 |
| 20260505173912 | 64 | 191 | 7.0 | 12.0 | 0.00 | 0.00 | 0.00 | 67 | 1008.7 |
| 20260505173408 | 65 | 207 | 9.0 | 12.0 | 0.00 | 0.00 | 0.00 | 66 | 1008.6 |
| 20260505172905 | 65 | 173 | 6.0 | 15.0 | 0.00 | 0.00 | 0.00 | 67 | 1008.6 |
| 20260505172403 | 64 | 144 | 2.0 | 12.0 | 0.00 | 0.00 | 0.00 | 67 | 1008.7 |
| 20260505171902 | 64 | 306 | 5.0 | 11.0 | 0.00 | 0.00 | 0.00 | 67 | 1008.8 |
| 20260505171359 | 65 | 242 | 10.0 | 12.0 | 0.00 | 0.00 | 0.00 | 66 | 1008.7 |
| 20260505170856 | 65 | 245 | 2.0 | 14.0 | 0.00 | 0.00 | 0.00 | 66 | 1008.7 |
| 20260505170353 | 65 | 265 | 4.0 | 12.0 | 0.00 | 0.00 | 0.00 | 66 | 1008.5 |
| 20260505165848 | 65 | 312 | 6.0 | 16.0 | 0.00 | 0.00 | 0.00 | 66 | 1008.7 |
| 20260505165344 | 65 | 195 | 6.0 | 8.0 | 0.00 | 0.00 | 0.00 | 65 | 1008.8 |
| 20260505164840 | 65 | 280 | 8.0 | 12.0 | 0.00 | 0.00 | 0.00 | 65 | 1008.5 |
| 20260505164337 | 66 | 208 | 7.0 | 11.0 | 0.00 | 0.00 | 0.00 | 64 | 1008.6 |
| 20260505163835 | 66 | 220 | 2.0 | 10.0 | 0.00 | 0.00 | 0.00 | 64 | 1008.4 |
| 20260505163333 | 66 | 206 | 4.0 | 21.0 | 0.00 | 0.00 | 0.00 | 63 | 1008.5 |
| 20260505162831 | 66 | 233 | 4.0 | 12.0 | 0.00 | 0.00 | 0.00 | 63 | 1008.5 |
| 20260505162327 | 66 | 235 | 4.0 | 10.0 | 0.00 | 0.00 | 0.00 | 63 | 1008.4 |
| 20260505161824 | 66 | 226 | 10.0 | 14.0 | 0.00 | 0.00 | 0.00 | 62 | 1008.4 |
| 20260505161322 | 66 | 236 | 5.0 | 16.0 | 0.00 | 0.00 | 0.00 | 61 | 1008.7 |
| 20260505160819 | 66 | 260 | 7.0 | 11.0 | 0.00 | 0.00 | 0.00 | 62 | 1008.3 |
| 20260505160317 | 67 | 207 | 4.0 | 12.0 | 0.00 | 0.00 | 0.00 | 61 | 1008.5 |
| 20260505153256 | 68 | 251 | 4.0 | 14.0 | 0.00 | 0.00 | 0.00 | 59 | 1007.5 |
| 20260505152753 | 68 | 236 | 6.0 | 16.0 | 0.00 | 0.00 | 0.00 | 59 | 1008.0 |
| 20260505152249 | 68 | 230 | 6.0 | 8.0 | 0.00 | 0.00 | 0.00 | 59 | 1007.4 |
| 20260505151743 | 68 | 211 | 11.0 | 11.0 | 0.00 | 0.00 | 0.00 | 59 | 1007.2 |
| 20260505151241 | 68 | 271 | 11.0 | 15.0 | 0.00 | 0.00 | 0.00 | 58 | 1007.0 |
| 20260505150738 | 68 | 265 | 6.0 | 10.0 | 0.00 | 0.00 | 0.00 | 60 | 1006.7 |
| 20260505150236 | 67 | 226 | 9.0 | 11.0 | 0.00 | 0.00 | 0.00 | 60 | 1006.9 |
| 20260505140205 | 66 | 240 | 6.0 | 10.0 | 0.00 | 0.00 | 0.00 | 63 | 1007.1 |
| 20260505130129 | 63 | 233 | 8.0 | 16.0 | 0.00 | 0.00 | 0.00 | 69 | 1006.7 |
| 20260505124619 | 63 | 210 | 6.0 | 14.0 | 0.00 | 0.00 | 0.00 | 68 | 1006.9 |
| 20260505124115 | 63 | 209 | 8.0 | 12.0 | 0.00 | 0.00 | 0.00 | 68 | 1006.9 |
| 20260505123611 | 63 | 238 | 8.0 | 11.0 | 0.00 | 0.00 | 0.00 | 67 | 1007.1 |
| 20260505123108 | 63 | 218 | 3.0 | 19.0 | 0.00 | 0.00 | 0.00 | 67 | 1006.8 |
| 20260505122605 | 63 | 250 | 8.0 | 11.0 | 0.00 | 0.00 | 0.00 | 67 | 1006.7 |
| 20260505122102 | 63 | 223 | 6.0 | 11.0 | 0.00 | 0.00 | 0.00 | 67 | 1006.8 |
| 20260505121558 | 62 | 207 | 4.0 | 11.0 | 0.00 | 0.00 | 0.00 | 67 | 1006.6 |
| 20260505121055 | 62 | 238 | 6.0 | 8.0 | 0.00 | 0.00 | 0.00 | 67 | 1006.3 |
| 20260505120551 | 62 | 193 | 7.0 | 14.0 | 0.00 | 0.00 | 0.00 | 67 | 1006.4 |
| 20260505120047 | 62 | 238 | 4.0 | 8.0 | 0.00 | 0.00 | 0.00 | 67 | 1006.1 |
| 20260505115542 | 62 | 231 | 5.0 | 10.0 | 0.00 | 0.00 | 0.00 | 67 | 1005.9 |
| 20260505115039 | 62 | 196 | 8.0 | 11.0 | 0.00 | 0.00 | 0.00 | 67 | 1005.8 |
| 20260505114536 | 63 | 205 | 5.0 | 5.0 | 0.00 | 0.00 | 0.00 | 67 | 1005.4 |
| 20260505114032 | 63 | 199 | 1.0 | 7.0 | 0.00 | 0.00 | 0.00 | 66 | 1005.5 |
| 20260505113529 | 63 | 208 | 6.0 | 10.0 | 0.00 | 0.00 | 0.00 | 66 | 1005.5 |
| 20260505113026 | 63 | 247 | 10.0 | 11.0 | 0.00 | 0.00 | 0.00 | 65 | 1005.4 |
| 20260505112523 | 63 | 224 | 5.0 | 10.0 | 0.00 | 0.00 | 0.00 | 65 | 1005.3 |
| 20260505112021 | 63 | 208 | 7.0 | 16.0 | 0.00 | 0.00 | 0.00 | 64 | 1005.2 |
| 20260505111519 | 64 | 210 | 6.0 | 15.0 | 0.00 | 0.00 | 0.00 | 64 | 1005.4 |
| 20260505111016 | 64 | 210 | 7.0 | 10.0 | 0.00 | 0.00 | 0.00 | 64 | 1005.3 |
| 20260505110513 | 64 | 223 | 6.0 | 14.0 | 0.00 | 0.00 | 0.00 | 63 | 1005.1 |
| 20260505101945 | 64 | 222 | 11.0 | 18.0 | 0.00 | 0.00 | 0.00 | 63 | 1005.3 |
| 20260505101443 | 65 | 221 | 11.0 | 15.0 | 0.00 | 0.00 | 0.00 | 64 | 1005.3 |
| 20260505100939 | 65 | 237 | 4.0 | 7.0 | 0.00 | 0.00 | 0.00 | 62 | 1005.0 |
| 20260505100437 | 65 | 182 | 7.0 | 10.0 | 0.00 | 0.00 | 0.00 | 62 | 1004.9 |
| 20260505095933 | 65 | 234 | 9.0 | 14.0 | 0.00 | 0.00 | 0.00 | 61 | 1005.1 |
| 20260505095430 | 66 | 245 | 5.0 | 15.0 | 0.00 | 0.00 | 0.00 | 61 | 1004.8 |
| 20260505094926 | 66 | 185 | 5.0 | 11.0 | 0.00 | 0.00 | 0.00 | 61 | 1004.6 |
| 20260505094423 | 66 | 220 | 9.0 | 12.0 | 0.00 | 0.00 | 0.00 | 61 | 1004.5 |
| 20260505093919 | 66 | 188 | 10.0 | 15.0 | 0.00 | 0.00 | 0.00 | 61 | 1004.3 |
| 20260505093416 | 66 | 187 | 7.0 | 10.0 | 0.00 | 0.00 | 0.00 | 60 | 1004.4 |
| 20260505092913 | 66 | 234 | 6.0 | 12.0 | 0.00 | 0.00 | 0.00 | 60 | 1004.2 |
| 20260505092411 | 66 | 172 | 6.0 | 11.0 | 0.00 | 0.00 | 0.00 | 60 | 1004.2 |
| 20260505091908 | 67 | 234 | 7.0 | 15.0 | 0.00 | 0.00 | 0.00 | 59 | 1004.2 |
| 20260505091406 | 67 | 216 | 13.0 | 18.0 | 0.00 | 0.00 | 0.00 | 59 | 1004.2 |